Location: OHP
(43.9325°N, 5.7154°E)
Time: 03:35:45
(UTC+00:00)

N. Korean satellite - Visible Passes

Search period start: 03 February 2023 00:00
Search period end: 13 February 2023 00:00
Orbit: 407 x 443 km, 97.3° (Epoch: 02 February)

Date Brightness Start Highest point End Pass type
(mag) Time Alt. Az. Time Alt. Az. Time Alt. Az.
03 Feb 6.5 05:25:27 10° N 05:28:33 44° WNW 05:31:40 10° SSW visible
04 Feb 7.6 04:42:50 10° NNE 04:45:55 41° E 04:49:01 10° S visible
04 Feb 8.3 06:16:46 10° NW 06:17:49 11° WNW 06:18:52 10° W visible
05 Feb 9.7 04:01:44 10° ENE 04:02:59 12° E 04:04:15 10° ESE visible
05 Feb 6.8 05:32:23 10° N 05:35:24 36° WNW 05:38:25 10° SW visible
06 Feb 7.1 04:49:30 10° NNE 04:52:41 52° E 04:55:53 10° S visible
07 Feb 9.5 04:07:50 10° ENE 04:09:40 14° E 04:11:31 10° SE visible
07 Feb 7.1 05:39:06 10° N 05:41:59 30° WNW 05:44:53 10° SW visible
08 Feb 6.6 04:55:57 10° NNE 04:59:12 65° E 05:02:27 10° S visible
09 Feb 9.3 04:13:51 10° NE 04:16:05 17° E 04:18:18 10° SE visible
09 Feb 7.3 05:45:35 10° NNW 05:48:20 25° WNW 05:51:05 10° SW visible
10 Feb 6.3 05:02:09 10° NNE 05:05:26 80° ESE 05:08:42 10° S visible
11 Feb 9.0 04:19:44 10° NE 04:22:14 20° E 04:24:45 10° SE visible
11 Feb 7.6 05:51:49 10° NNW 05:54:23 21° WNW 05:56:58 10° WSW visible
12 Feb 6.2 05:08:08 10° N 05:11:25 83° WNW 05:14:43 10° SSW visible
